Temperature
1 1 1 1 1 1 0 1 1 2 0 0 -1 -2 -3 -4 -4 -5 -5 -6 -6 -6 -6 -6 -6 -5 -5 -5 -5 -5 -5 -5 -5 -4 -4 -4 -4 -3 -3 -3 -2 -2 -2 -1
-0 -0 -1 -1 -0 0 -0 -0 -0 -0 -1 -1 -2 -3 -4 -4 -5 -5 -6 -6 -6 -7 -7 -7 -7 -6 -6 -6 -6 -6 -6 -5 -5 -5 -5 -5 -4 -4 -4 -3 -3 -3 -2 -2
1 -1 -1 0 -0 -1 -1 -2 -1 -1 -1 -2 -3 -4 -4 -5 -5 -6 -6 -6 -7 -7 -7 -7 -7 -7 -7 -7 -6 -6 -6 -6 -6 -6 -6 -5 -5 -5 -5 -4 -4 -4 -3 -3
-0 -1 -1 1 -2 -2 -2 -3 -3 -3 -3 -4 -4 -5 -5 -6 -6 -6 -7 -7 -7 -7 -8 -7 -7 -7 -7 -7 -7 -7 -7 -7 -7 -6 -6 -6 -6 -6 -6 -5 -5 -4 -4 -3
-1 -0 0 -1 -3 -3 -3 -3 -3 -4 -4 -5 -6 -6 -5 -6 -6 -7 -7 -7 -8 -8 -8 -8 -8 -8 -8 -8 -7 -7 -7 -7 -7 -7 -7 -7 -7 -6 -6 -6 -6 -5 -5 -4
-2 -1 0 0 -3 -5 -3 -3 -4 -5 -5 -5 -6 -4 -4 -6 -7 -7 -8 -8 -8 -8 -8 -8 -8 -8 -8 -8 -8 -8 -8 -8 -8 -8 -8 -8 -7 -7 -7 -7 -6 -6 -5 -5
-2 -1 -0 -2 -5 -4 -2 -2 -4 -5 -5 -6 -6 -5 -6 -7 -7 -8 -8 -8 -8 -8 -9 -9 -9 -9 -9 -9 -9 -9 -8 -8 -8 -8 -8 -8 -8 -8 -7 -7 -7 -6 -6 -6
-3 -2 -1 -4 -5 -3 -3 -4 -5 -5 -6 -6 -7 -7 -7 -8 -8 -8 -8 -8 -9 -9 -9 -9 -9 -9 -9 -9 -9 -9 -9 -9 -8 -8 -8 -8 -8 -8 -8 -7 -7 -7 -6 -6
-3 -2 -4 -5 -5 -5 -5 -5 -6 -6 -6 -7 -7 -8 -8 -8 -8 -9 -9 -9 -9 -9 -9 -9 -9 -10 -10 -10 -9 -9 -9 -9 -9 -9 -9 -9 -8 -8 -8 -8 -8 -7 -7 -7
-5 -4 -5 -6 -6 -5 -6 -6 -6 -6 -7 -7 -8 -8 -8 -8 -9 -9 -9 -9 -9 -10 -10 -10 -10 -10 -10 -10 -10 -10 -10 -9 -9 -9 -9 -9 -9 -9 -9 -8 -8 -8 -8 -7
-5 -5 -6 -6 -6 -6 -6 -6 -7 -7 -7 -8 -8 -8 -9 -9 -9 -9 -10 -10 -10 -10 -10 -10 -10 -10 -10 -10 -10 -10 -10 -10 -10 -10 -10 -10 -9 -9 -9 -9 -9 -8 -8 -8
-3 -4 -5 -5 -6 -6 -7 -7 -7 -8 -8 -8 -9 -9 -9 -9 -9 -10 -10 -10 -10 -10 -11 -11 -11 -10 -10 -11 -11 -11 -11 -10 -11 -11 -10 -10 -10 -9 -9 -9 -9 -8 -8 -8
-6 -6 -6 -6 -6 -7 -7 -7 -8 -8 -8 -9 -9 -9 -9 -10 -10 -10 -10 -11 -11 -11 -11 -11 -11 -11 -11 -11 -11 -11 -11 -11 -11 -11 -11 -11 -10 -10 -10 -9 -9 -9 -8 -8
-6 -7 -7 -7 -7 -7 -8 -8 -8 -9 -9 -9 -9 -10 -10 -10 -10 -10 -11 -11 -11 -11 -11 -11 -11 -11 -11 -11 -11 -11 -11 -11 -11 -11 -11 -11 -11 -11 -10 -10 -10 -9 -9 -9
-7 -7 -7 -7 -8 -8 -8 -8 -9 -9 -9 -9 -10 -10 -10 -10 -10 -11 -11 -11 -11 -11 -11 -12 -11 -11 -12 -12 -12 -12 -12 -12 -12 -12 -11 -11 -11 -11 -11 -11 -11 -10 -9 -9
-7 -7 -8 -8 -8 -8 -9 -9 -9 -9 -10 -10 -10 -10 -11 -11 -11 -11 -11 -12 -12 -12 -12 -12 -12 -12 -12 -12 -12 -12 -12 -12 -12 -12 -12 -11 -11 -11 -11 -11 -11 -11 -10 -10
-8 -8 -8 -8 -9 -9 -9 -9 -10 -10 -10 -10 -10 -11 -11 -11 -11 -11 -11 -12 -12 -12 -12 -12 -12 -12 -12 -12 -12 -12 -12 -12 -12 -12 -12 -12 -12 -12 -12 -12 -11 -11 -11 -10
-8 -8 -8 -8 -9 -9 -9 -10 -10 -10 -10 -11 -11 -11 -11 -11 -12 -12 -12 -12 -12 -12 -12 -12 -12 -12 -12 -13 -13 -13 -13 -13 -13 -13 -12 -12 -12 -12 -12 -12 -12 -12 -11 -11
-8 -8 -9 -9 -9 -9 -10 -10 -10 -10 -11 -11 -11 -11 -12 -12 -12 -12 -12 -12 -12 -12 -12 -13 -13 -13 -13 -13 -13 -13 -13 -13 -13 -13 -13 -12 -12 -12 -12 -12 -12 -12 -12 -11
-8 -9 -9 -9 -10 -10 -10 -10 -11 -11 -11 -11 -12 -12 -12 -12 -12 -13 -13 -13 -13 -13 -13 -13 -13 -13 -13 -13 -13 -13 -13 -13 -13 -13 -13 -13 -13 -13 -12 -12 -12 -12 -12 -12
-9 -9 -9 -10 -10 -10 -11 -11 -11 -11 -12 -12 -12 -12 -13 -13 -13 -13 -13 -13 -13 -13 -13 -13 -13 -13 -13 -13 -13 -13 -13 -13 -13 -13 -13 -13 -13 -13 -13 -13 -12 -12 -12 -12
-9 -9 -10 -10 -10 -11 -11 -11 -12 -12 -12 -12 -13 -13 -13 -13 -13 -13 -14 -14 -14 -14 -14 -14 -14 -14 -14 -14 -14 -14 -14 -14 -14 -14 -14 -13 -13 -13 -13 -13 -13 -13 -12 -12
-10 -10 -10 -11 -11 -11 -12 -12 -12 -12 -13 -13 -13 -13 -14 -14 -14 -14 -14 -14 -14 -14 -14 -14 -14 -14 -14 -14 -14 -14 -14 -14 -14 -14 -14 -14 -14 -14 -14 -13 -13 -13 -13 -13
-10 -10 -11 -11 -11 -12 -12 -12 -13 -13 -13 -13 -14 -14 -14 -14 -14 -14 -15 -15 -15 -15 -15 -14 -14 -14 -14 -14 -14 -14 -14 -14 -14 -14 -14 -14 -14 -14 -14 -14 -13 -13 -13 -13
-11 -11 -11 -12 -12 -12 -13 -13 -13 -13 -14 -14 -14 -14 -14 -14 -15 -15 -15 -15 -15 -15 -15 -15 -15 -15 -15 -15 -15 -15 -15 -14 -14 -15 -14 -14 -14 -14 -14 -14 -14 -14 -13 -13
-11 -12 -12 -12 -13 -13 -13 -13 -14 -14 -14 -14 -14 -14 -15 -15 -15 -15 -15 -15 -15 -15 -15 -15 -15 -15 -15 -15 -15 -15 -15 -15 -15 -15 -15 -15 -14 -14 -14 -14 -14 -14 -14 -13
-12 -12 -12 -13 -13 -13 -14 -14 -14 -14 -15 -15 -15 -15 -15 -15 -15 -15 -15 -15 -15 -15 -15 -15 -15 -15 -15 -15 -15 -15 -15 -15 -15 -15 -15 -15 -15 -14 -14 -14 -14 -14 -14 -13
Wind_Speed
7 5 5 8 9 9 11 12 11 11 11 11 8 7 7 6 6 6 7 7 8 9 9 10 11 11 10 10 10 10 10 11 11 11 11 10 10 10 9 9 9 8 8 8
5 4 5 9 11 11 12 12 13 14 13 8 5 5 5 6 6 7 8 8 9 10 10 11 11 11 11 11 11 10 10 11 11 11 11 10 10 10 10 9 9 9 8 8
4 2 5 9 8 9 6 7 7 10 8 4 5 6 6 6 6 7 8 9 9 10 11 11 11 11 12 11 11 11 11 11 11 11 11 11 10 10 10 10 10 9 9 8
3 3 7 1 2 3 6 6 7 7 6 6 6 7 6 6 6 7 8 9 10 10 11 11 11 11 11 11 11 11 11 11 11 11 11 11 11 10 10 9 9 9 9 9
3 5 8 3 2 3 4 5 5 6 6 5 4 5 5 3 5 7 9 9 10 10 11 11 11 11 11 11 11 11 11 12 12 11 12 11 11 11 10 10 10 9 9 9
4 5 6 1 3 2 2 4 3 4 4 3 3 5 5 4 7 8 9 9 9 10 10 10 11 10 11 11 11 12 12 13 12 12 12 11 11 11 10 9 10 9 9 9
8 7 7 0 3 4 4 2 2 4 4 4 4 6 7 7 8 9 9 9 9 9 9 10 10 10 11 11 11 12 13 13 12 11 11 11 11 10 10 9 9 9 9 8
6 7 6 5 6 5 3 1 2 3 4 5 7 7 7 8 8 9 9 9 9 9 9 10 10 10 11 12 12 13 13 12 11 11 10 10 10 10 9 9 8 8 8 8
7 6 1 6 5 2 1 2 3 3 4 5 6 7 8 8 8 9 9 9 8 9 10 10 10 10 11 12 13 13 13 12 12 12 10 10 9 9 9 8 7 7 7 7
5 7 5 5 5 4 4 4 4 4 4 5 6 8 8 8 8 8 8 8 9 9 10 11 11 11 11 12 12 12 13 12 11 11 10 10 8 7 7 7 7 7 7 7
7 6 4 5 7 6 4 4 4 4 4 5 6 7 8 8 8 8 8 8 8 8 10 11 12 12 12 12 12 12 12 11 11 10 10 9 8 8 8 8 8 8 8 7
6 4 4 3 3 3 4 4 4 4 4 5 5 7 7 7 7 7 8 8 8 9 10 11 11 12 12 11 11 11 11 10 9 9 9 8 8 9 10 10 12 13 12 10
3 1 3 3 2 2 3 3 3 4 4 5 5 5 6 6 6 7 7 8 9 9 10 11 11 12 12 11 11 10 10 10 9 9 8 8 8 9 9 10 11 12 12 11
3 2 3 3 3 2 2 3 2 3 3 4 4 5 5 6 7 7 8 8 9 9 10 10 11 11 11 11 11 11 11 11 10 8 8 8 9 9 8 8 9 8 9 11
4 4 3 2 1 1 1 1 2 3 4 4 4 5 5 6 7 8 8 8 8 9 9 10 10 11 11 11 10 11 10 8 8 8 8 8 8 8 8 8 8 8 7 8
2 2 3 3 3 3 2 3 3 4 4 5 5 6 6 7 7 8 8 7 8 10 10 10 11 11 11 11 10 9 9 12 11 9 8 8 8 7 7 7 7 7 7 7
3 2 3 3 3 3 3 3 4 5 5 6 6 6 6 6 7 8 8 8 8 9 10 10 11 11 11 10 10 8 8 9 11 9 8 8 7 7 7 7 7 6 6 7
4 3 3 3 3 3 4 4 4 5 5 6 6 6 6 6 7 8 9 9 9 9 9 9 10 11 10 10 9 8 8 8 8 8 7 7 7 7 6 7 7 8 7 7
2 2 2 2 2 3 3 4 4 4 5 5 5 6 6 7 7 8 8 8 9 9 9 10 13 11 10 10 10 7 7 8 8 8 7 9 8 6 7 7 7 7 7 6
1 1 1 1 1 2 3 4 4 4 4 4 5 6 6 6 6 7 7 7 7 7 10 11 11 10 10 10 11 7 7 8 8 8 7 7 7 7 6 6 7 6 6 6
2 1 1 1 2 2 3 3 3 4 4 4 4 6 6 7 6 6 7 7 7 9 10 12 9 9 9 10 10 7 7 7 7 7 7 7 7 7 7 6 6 6 6 6
2 2 2 2 2 3 3 3 3 4 4 4 5 5 6 7 7 7 6 6 8 11 10 8 8 11 12 11 7 7 7 7 7 6 6 6 6 6 7 7 6 6 6 6
2 2 2 2 2 3 3 3 3 3 4 5 5 5 6 6 6 6 7 6 7 11 10 8 11 15 15 8 6 7 7 7 7 6 6 6 6 6 6 7 6 6 6 6
1 1 1 1 1 2 3 3 3 3 4 5 5 5 5 6 5 5 6 10 12 13 8 10 15 15 13 7 6 7 7 7 6 6 6 6 6 6 6 6 6 6 6 6
1 1 1 1 1 2 3 4 4 4 4 4 5 5 5 4 5 6 7 8 11 11 8 10 14 14 9 7 7 7 7 6 6 6 6 6 6 6 6 6 5 6 5 5
1 1 1 2 2 2 2 3 3 3 4 5 5 5 5 5 6 6 6 7 9 10 8 7 8 9 7 7 7 7 7 7 7 6 6 6 6 6 6 6 7 6 6 5
0 1 1 1 2 2 2 3 3 4 4 5 6 6 6 6 6 6 7 7 7 7 7 7 7 7 7 7 7 7 7 6 6 6 6 6 6 6 6 7 6 6 6 6
Wind_Direction
267 273 255 254 252 233 228 240 254 268 271 284 290 289 294 296 303 310 317 323 324 325 324 324 324 323 320 319 320 320 317 314 312 312 311 310 309 308 309 309 306 303 295 286
264 248 260 265 259 246 243 247 252 265 275 291 296 284 287 296 305 309 314 317 319 321 322 322 321 320 318 317 318 318 314 311 311 310 309 308 309 309 309 308 306 305 296 287
262 294 289 264 246 224 222 227 239 254 274 300 295 292 294 298 301 304 309 312 315 317 317 318 318 317 316 315 314 314 312 310 309 309 308 307 307 306 304 304 305 304 297 289
275 284 249 265 87 204 221 243 238 254 275 282 289 296 291 289 293 302 307 310 312 314 314 315 316 316 314 314 314 313 311 311 312 310 308 307 304 302 303 302 300 300 298 290
232 259 271 264 197 191 222 264 238 244 267 287 307 301 283 296 304 303 304 305 306 308 309 311 314 315 315 315 315 314 312 312 312 310 306 304 301 301 300 300 298 297 296 294
217 246 259 238 127 146 202 265 200 214 247 274 303 294 306 324 317 309 307 306 307 309 310 312 315 317 316 315 315 314 313 311 310 308 304 300 297 297 297 295 294 296 295 293
229 243 263 187 155 170 227 293 151 212 237 246 256 276 302 307 307 307 307 309 310 310 310 312 316 317 314 314 313 313 311 309 308 307 304 302 299 297 295 294 292 292 294 295
208 227 249 146 158 201 246 66 209 238 248 257 270 286 294 298 303 307 310 312 313 312 311 315 318 317 314 313 313 314 312 311 310 309 307 304 302 300 297 293 291 293 296 299
209 228 342 173 201 223 199 226 248 256 262 265 274 285 293 296 301 305 307 310 312 311 311 316 320 319 313 313 315 314 312 312 311 309 307 305 302 301 299 296 291 292 294 297
245 252 242 230 239 240 236 250 265 267 270 268 271 282 291 296 301 305 307 309 313 314 314 317 322 319 314 314 316 315 313 313 312 310 310 310 305 301 299 298 295 294 294 295
244 261 271 242 228 235 245 253 265 272 270 268 272 280 287 293 299 304 307 310 311 311 311 314 318 318 318 319 318 316 314 313 312 310 308 309 306 301 298 293 294 294 292 292
241 228 225 252 226 215 231 248 257 267 276 277 272 278 287 292 298 302 305 309 310 310 311 313 315 316 318 320 318 316 314 315 313 311 310 309 309 308 304 299 302 301 301 298
248 265 247 268 255 235 239 255 262 259 265 280 285 283 286 291 297 301 303 306 306 307 308 311 313 314 317 319 317 314 310 311 310 310 309 310 310 310 311 311 307 305 305 304
228 226 245 239 248 254 254 262 267 271 275 280 286 290 291 294 297 300 302 304 304 305 307 309 311 312 317 318 316 313 310 308 308 307 308 308 307 306 305 307 310 312 311 307
226 226 235 253 257 261 261 256 266 278 290 295 295 293 294 296 296 298 301 304 304 305 307 310 310 313 318 318 316 313 312 313 312 310 308 307 306 305 304 304 305 307 311 315
212 211 215 232 254 267 266 263 268 279 289 293 294 295 295 293 293 296 300 305 305 307 309 309 309 312 317 317 316 313 311 314 316 313 311 311 311 310 309 308 306 306 308 313
188 213 222 243 256 266 266 265 268 277 283 286 290 295 297 298 299 300 304 306 302 299 302 304 307 312 315 316 314 313 312 313 317 314 313 313 312 310 311 312 312 310 308 311
221 230 227 237 245 257 270 276 276 279 281 285 292 293 293 295 298 303 306 308 307 306 307 309 311 315 316 316 314 312 312 313 314 314 313 313 311 309 309 308 310 310 312 316
219 225 232 242 246 248 261 272 278 282 286 288 289 289 290 291 295 300 304 306 307 312 319 320 320 321 317 317 318 310 311 312 312 313 312 314 314 311 310 308 309 310 312 315
200 209 225 254 266 255 265 277 283 287 290 290 290 292 296 300 302 304 303 299 299 305 310 314 317 317 316 317 317 310 310 310 311 313 315 315 315 313 311 311 312 313 313 313
206 212 235 262 284 284 277 280 282 288 296 292 289 293 297 302 304 304 304 305 311 315 315 316 318 316 316 318 316 314 314 314 312 312 314 315 316 316 314 312 312 313 314 315
210 221 246 263 279 297 302 295 287 290 297 299 298 299 302 306 309 305 294 293 307 316 318 314 315 317 322 322 319 317 316 315 313 312 311 312 313 314 316 317 316 315 315 315
218 227 244 259 273 293 305 302 296 294 295 298 299 302 303 303 304 304 308 311 314 316 318 314 318 322 326 328 323 319 317 315 314 312 311 310 310 311 312 314 314 314 314 314
218 234 257 278 279 286 302 310 307 303 298 296 295 297 302 305 303 296 298 309 317 318 316 317 325 328 332 329 321 317 315 313 312 311 310 308 309 310 310 311 311 312 312 312
217 234 245 262 279 289 297 305 309 311 312 310 310 310 307 300 298 305 308 310 317 321 318 320 326 329 330 321 320 317 315 312 311 311 311 311 311 309 308 308 309 309 309 308
222 244 254 259 271 286 296 301 304 310 313 313 314 315 314 311 306 306 308 311 314 318 319 317 319 322 320 318 316 315 313 313 315 316 314 312 311 310 308 310 309 307 305 305
257 268 270 285 298 298 295 293 296 302 306 307 309 311 313 314 313 315 314 315 317 317 316 315 316 316 315 315 313 312 311 310 309 309 309 308 307 305 305 305 304 303 302 301
Height
1545 1546 1547 1545 1544 1545 1545 1539 1536 1529 1532 1531 1534 1536 1535 1534 1532 1530 1527 1525 1522 1519 1515 1512 1508 1504 1501 1498 1494 1491 1488 1484 1481 1478 1475 1472 1469 1467 1464 1462 1460 1458 1456 1455
1548 1546 1547 1544 1540 1540 1541 1540 1537 1534 1533 1532 1534 1534 1533 1532 1530 1528 1526 1523 1520 1517 1513 1509 1506 1502 1498 1494 1491 1488 1484 1481 1478 1475 1471 1468 1465 1463 1460 1457 1456 1453 1452 1451
1540 1546 1545 1535 1534 1536 1537 1536 1536 1533 1532 1533 1533 1532 1531 1530 1528 1526 1524 1521 1518 1515 1511 1507 1503 1499 1495 1491 1488 1484 1481 1477 1474 1471 1467 1464 1461 1459 1456 1453 1451 1449 1448 1446
1543 1546 1541 1530 1536 1535 1536 1535 1536 1534 1533 1533 1533 1531 1530 1528 1526 1524 1522 1519 1515 1512 1508 1504 1500 1496 1492 1488 1484 1481 1477 1474 1470 1466 1463 1460 1457 1455 1452 1449 1447 1445 1443 1441
1544 1538 1528 1531 1535 1536 1536 1533 1533 1533 1532 1532 1531 1529 1527 1526 1524 1522 1520 1516 1513 1509 1505 1501 1497 1493 1489 1484 1481 1477 1474 1470 1466 1463 1459 1456 1453 1451 1448 1445 1443 1441 1439 1437
1545 1538 1527 1525 1535 1535 1537 1530 1530 1531 1530 1530 1530 1526 1524 1523 1521 1519 1516 1513 1509 1505 1501 1497 1493 1490 1485 1481 1477 1473 1470 1466 1462 1459 1456 1453 1450 1447 1444 1442 1439 1437 1435 1433
1540 1536 1524 1531 1534 1536 1532 1525 1528 1528 1528 1528 1528 1526 1524 1521 1518 1516 1513 1510 1506 1502 1498 1494 1490 1486 1481 1477 1474 1470 1466 1462 1458 1455 1452 1449 1446 1443 1440 1438 1435 1433 1431 1429
1538 1535 1527 1531 1532 1530 1526 1526 1526 1526 1526 1526 1524 1523 1520 1518 1515 1513 1509 1506 1503 1499 1495 1491 1487 1482 1478 1474 1470 1466 1462 1458 1454 1451 1448 1445 1442 1439 1436 1434 1431 1429 1427 1425
1530 1526 1526 1526 1525 1525 1525 1525 1524 1524 1524 1523 1521 1519 1517 1515 1512 1509 1506 1503 1499 1496 1491 1487 1484 1480 1475 1471 1467 1463 1458 1454 1451 1447 1444 1441 1438 1435 1432 1430 1428 1425 1423 1421
1529 1523 1524 1524 1523 1523 1523 1523 1522 1522 1521 1520 1518 1516 1514 1512 1509 1506 1503 1500 1496 1492 1488 1484 1481 1477 1473 1468 1464 1459 1455 1451 1447 1444 1440 1437 1434 1431 1429 1426 1424 1422 1420 1418
1524 1521 1521 1520 1520 1520 1520 1520 1519 1518 1518 1516 1515 1513 1511 1508 1506 1503 1500 1496 1493 1490 1486 1482 1478 1474 1470 1465 1461 1456 1452 1448 1444 1441 1437 1434 1430 1428 1425 1423 1422 1420 1418 1416
1516 1517 1518 1517 1517 1517 1517 1517 1516 1515 1514 1513 1512 1510 1508 1505 1503 1500 1497 1494 1490 1487 1483 1479 1475 1470 1466 1462 1458 1453 1449 1445 1441 1438 1434 1431 1427 1424 1421 1420 1418 1416 1414 1413
1515 1514 1515 1514 1514 1514 1514 1514 1513 1512 1511 1510 1508 1507 1504 1502 1499 1497 1494 1491 1487 1483 1480 1476 1472 1467 1463 1459 1455 1451 1446 1443 1439 1435 1431 1428 1425 1421 1418 1415 1414 1412 1410 1408
1512 1513 1512 1512 1512 1512 1511 1511 1510 1509 1508 1507 1505 1503 1501 1499 1496 1493 1490 1487 1484 1480 1477 1473 1468 1464 1460 1456 1452 1448 1444 1440 1436 1432 1429 1426 1423 1419 1416 1413 1410 1407 1406 1405
1509 1509 1510 1509 1509 1509 1508 1508 1507 1506 1505 1504 1502 1500 1498 1495 1493 1490 1487 1484 1480 1477 1473 1469 1465 1461 1457 1453 1448 1444 1441 1437 1433 1430 1426 1423 1420 1417 1414 1411 1408 1405 1403 1401
1506 1507 1507 1507 1506 1506 1506 1505 1504 1503 1502 1500 1499 1497 1495 1492 1489 1486 1484 1480 1477 1473 1469 1466 1462 1458 1454 1449 1445 1441 1437 1434 1430 1427 1424 1421 1418 1415 1412 1409 1406 1403 1401 1399
1504 1504 1504 1504 1504 1503 1503 1502 1501 1500 1498 1497 1495 1493 1491 1488 1486 1483 1480 1477 1473 1470 1466 1462 1458 1454 1450 1446 1442 1438 1435 1431 1428 1425 1422 1419 1416 1413 1410 1407 1405 1402 1400 1398
1502 1502 1502 1502 1501 1500 1500 1499 1498 1497 1495 1494 1492 1490 1487 1485 1482 1479 1476 1473 1469 1466 1463 1459 1455 1451 1447 1444 1440 1436 1433 1429 1426 1423 1419 1417 1414 1411 1409 1406 1403 1401 1398 1396
1500 1500 1500 1499 1499 1498 1497 1496 1495 1494 1492 1490 1488 1486 1484 1481 1478 1476 1472 1469 1466 1462 1459 1455 1452 1448 1445 1441 1438 1434 1431 1427 1424 1421 1417 1415 1412 1409 1407 1404 1402 1399 1397 1395
1498 1498 1497 1497 1496 1495 1494 1493 1492 1490 1489 1487 1485 1482 1480 1478 1475 1472 1469 1466 1463 1459 1456 1452 1449 1445 1442 1439 1435 1432 1429 1425 1422 1419 1415 1413 1410 1407 1405 1402 1400 1398 1395 1393
1496 1495 1495 1494 1493 1492 1491 1490 1488 1487 1485 1483 1481 1479 1476 1474 1471 1468 1465 1462 1460 1456 1453 1449 1446 1442 1439 1436 1433 1430 1426 1423 1420 1417 1414 1411 1408 1405 1403 1401 1398 1396 1394 1392
1494 1493 1492 1491 1490 1489 1488 1487 1485 1484 1482 1480 1478 1475 1473 1470 1468 1465 1462 1460 1456 1453 1450 1446 1443 1440 1437 1434 1430 1427 1424 1421 1418 1415 1412 1409 1406 1403 1401 1399 1397 1395 1393 1391
1491 1491 1490 1489 1488 1486 1485 1484 1482 1481 1479 1477 1475 1472 1470 1467 1465 1462 1459 1456 1453 1450 1447 1443 1440 1437 1434 1431 1427 1424 1421 1418 1415 1412 1410 1407 1404 1402 1399 1397 1395 1393 1391 1390
1489 1488 1487 1486 1485 1484 1483 1481 1480 1478 1476 1474 1472 1469 1467 1464 1461 1459 1456 1453 1450 1447 1443 1440 1437 1434 1431 1428 1425 1421 1418 1416 1413 1410 1407 1405 1402 1400 1398 1395 1393 1391 1390 1388
1486 1486 1485 1484 1483 1481 1480 1478 1476 1475 1473 1471 1469 1466 1464 1461 1458 1455 1453 1450 1446 1443 1440 1437 1434 1431 1428 1424 1422 1419 1416 1413 1410 1408 1405 1403 1400 1398 1395 1393 1391 1389 1387 1386
1484 1483 1482 1481 1480 1479 1477 1475 1474 1472 1470 1467 1465 1463 1461 1458 1455 1452 1450 1446 1443 1440 1437 1434 1431 1428 1425 1422 1419 1416 1413 1410 1408 1405 1403 1400 1398 1396 1393 1391 1389 1387 1385 1384
1481 1480 1480 1479 1477 1476 1475 1473 1471 1469 1467 1465 1462 1460 1458 1455 1452 1450 1447 1444 1440 1437 1434 1431 1428 1425 1422 1419 1416 1413 1410 1408 1405 1403 1400 1398 1396 1393 1391 1389 1387 1385 1384 1382